Date String (YYYY-MM-DD hh:mm:ss) UTC,Instrument flags,Ambient pressure (hPa),Sample flow (lpm),Bypass flow (lpm),Sample temperature (°C),Ambient temperature (°C),ASC tube jacket temperature (°C),LED temperature (°C),Box temperature (°C),Sample RH (%),Span deviation,Mass concentration (μg/m³),Mass concentration (μg/m³),Mass concentration (μg/m³)
DateTimeUTC,F1_M11,P_M11,Q1_M11,Q2_M11,T1_M11,T2_M11,T3_M11,T4_M11,T5_M11,U1_M11,ZSPAN_M11,X0_M11,X2_M11,X1_M11
2021-11-29 20:00:00,,0827.1,5.01,0.00,29.7,27.5,00.0,38.9,31.4,11.3,0000.0,0018.17,0003.38,0000.99
2021-11-29 20:01:00,,0827.2,4.99,0.00,29.8,27.9,00.0,38.8,31.4,11.3,0000.0,0018.81,0003.45,0001.03
2021-11-29 20:02:00,,0827.2,5.00,0.00,29.8,28.2,00.0,38.8,31.5,11.3,0000.0,0019.22,0003.53,0001.05
2021-11-29 20:03:00,,0827.2,5.01,0.00,29.8,28.4,00.0,38.8,31.6,11.3,0000.0,0020.37,0003.67,0001.08
2021-11-29 20:04:00,,0827.2,5.00,0.00,29.9,28.6,00.0,38.8,31.6,11.3,0000.0,0020.75,0003.72,0001.10
2021-11-29 20:05:00,,0827.2,5.01,0.00,29.9,28.8,00.0,38.9,31.7,11.3,0000.0,0018.66,0003.71,0001.12
2021-11-29 20:06:00,,0827.2,5.00,0.00,29.9,28.9,00.0,38.9,31.7,11.3,0000.0,0018.26,0003.72,0001.14
2021-11-29 20:07:00,,0827.2,4.99,0.00,30.0,29.0,00.0,38.9,31.8,11.2,0000.0,0019.24,0003.76,0001.16
2021-11-29 20:08:00,,0827.2,4.99,0.00,30.0,29.2,00.0,38.9,31.9,11.2,0000.0,0019.53,0003.73,0001.17
2021-11-29 20:09:00,,0827.1,5.01,0.00,30.1,29.3,00.0,38.9,31.9,11.2,0000.0,0017.92,0003.74,0001.16
2021-11-29 20:10:00,,0827.1,5.00,0.00,30.1,29.4,00.0,38.9,32.0,11.1,0000.0,0017.91,0003.72,0001.16
2021-11-29 20:11:00,,0827.1,4.99,0.00,30.2,29.5,00.0,39.0,32.0,11.1,0000.0,0018.15,0003.74,0001.16
2021-11-29 20:12:00,,0827.1,5.00,0.00,30.2,29.4,00.0,39.0,32.0,11.1,0000.0,0018.84,0003.67,0001.15
2021-11-29 20:13:00,,0827.1,5.00,0.00,30.1,27.5,00.0,39.0,31.5,11.1,0000.0,0019.81,0003.61,0001.14
2021-11-29 20:14:00,,0827.2,4.99,0.00,29.9,25.8,00.0,39.0,31.1,11.1,0000.0,0019.86,0003.57,0001.13
2021-11-29 20:15:00,,0827.3,5.00,0.00,29.8,26.0,00.0,38.9,31.1,11.2,0000.0,0019.90,0003.58,0001.13
2021-11-29 20:16:00,,0827.1,5.01,0.00,29.8,26.4,00.0,38.9,31.2,11.2,0000.0,0020.93,0003.62,0001.14
2021-11-29 20:17:00,,0827.3,4.99,0.00,29.7,26.9,00.0,38.8,31.2,11.2,0000.0,0021.75,0003.62,0001.15
2021-11-29 20:18:00,,0827.1,5.01,0.00,29.7,27.4,00.0,38.8,31.3,11.3,0000.0,0021.60,0003.56,0001.13
2021-11-29 20:19:00,,0827.0,5.02,0.00,29.7,27.8,00.0,38.8,31.4,11.3,0000.0,0020.89,0003.58,0001.12
2021-11-29 20:20:00,,0827.1,4.98,0.00,29.7,28.1,00.0,38.8,31.4,11.3,0000.0,0020.53,0003.58,0001.13
2021-11-29 20:21:00,,0827.2,5.01,0.00,29.8,28.4,00.0,38.8,31.5,11.2,0000.0,0021.32,0003.63,0001.13
2021-11-29 20:22:00,,0827.1,4.99,0.00,29.8,28.6,00.0,38.8,31.6,11.2,0000.0,0021.32,0003.59,0001.12
2021-11-29 20:23:00,,0827.0,5.00,0.00,29.9,28.8,00.0,38.8,31.7,11.1,0000.0,0021.67,0003.57,0001.10
2021-11-29 20:24:00,,0827.0,5.01,0.00,29.9,28.9,00.0,38.8,31.7,11.1,0000.0,0020.73,0003.58,0001.11
2021-11-29 20:25:00,,0827.0,4.99,0.00,29.9,29.0,00.0,38.8,31.8,11.0,0000.0,0019.68,0003.56,0001.10
2021-11-29 20:26:00,,0827.1,5.00,0.00,30.0,29.2,00.0,38.9,31.8,11.0,0000.0,0019.52,0003.49,0001.09
2021-11-29 20:27:00,,0827.4,5.01,0.00,30.0,29.3,00.0,38.9,31.9,11.0,0000.0,0019.25,0003.44,0001.08
2021-11-29 20:28:00,,0827.4,5.00,0.00,30.1,29.3,00.0,38.9,31.9,11.0,0000.0,0018.60,0003.45,0001.06
2021-11-29 20:29:00,,0827.0,5.00,0.00,30.1,28.6,00.0,38.9,31.8,11.0,0000.0,0019.47,0003.50,0001.07
2021-11-29 20:30:00,,0827.0,4.99,0.00,30.0,26.5,00.0,38.9,31.3,11.0,0000.0,0019.41,0003.50,0001.09
2021-11-29 20:31:00,,0827.1,5.00,0.00,29.8,25.8,00.0,38.9,31.0,11.3,0000.0,0019.50,0003.45,0001.07
2021-11-29 20:32:00,,0827.0,5.01,0.00,29.7,26.2,00.0,38.8,31.1,11.4,0000.0,0018.01,0003.36,0001.06
2021-11-29 20:33:00,,0827.0,4.99,0.00,29.7,26.6,00.0,38.8,31.2,11.4,0000.0,0017.46,0003.35,0001.07
2021-11-29 20:34:00,,0827.1,5.00,0.00,29.6,27.1,00.0,38.7,31.2,11.5,0000.0,0016.32,0003.34,0001.08
2021-11-29 20:35:00,,0827.1,4.99,0.00,29.6,27.5,00.0,38.7,31.3,11.5,0000.0,0016.68,0003.35,0001.07
2021-11-29 20:36:00,,0827.2,5.01,0.00,29.7,27.9,00.0,38.7,31.4,11.5,0000.0,0017.07,0003.32,0001.08
2021-11-29 20:37:00,,0827.0,5.00,0.00,29.7,28.2,00.0,38.7,31.4,11.5,0000.0,0017.11,0003.34,0001.09
2021-11-29 20:38:00,,0826.9,5.00,0.00,29.7,28.4,00.0,38.7,31.5,11.5,0000.0,0017.78,0003.42,0001.10
2021-11-29 20:39:00,,0826.8,5.00,0.00,29.8,28.6,00.0,38.7,31.6,11.4,0000.0,0018.74,0003.42,0001.11
2021-11-29 20:40:00,,0827.1,5.00,0.00,29.8,28.8,00.0,38.7,31.6,11.3,0000.0,0017.83,0003.41,0001.10
2021-11-29 20:41:00,,0827.3,4.99,0.00,29.8,28.9,00.0,38.8,31.7,11.3,0000.0,0017.99,0003.37,0001.09
2021-11-29 20:42:00,,0827.0,5.00,0.00,29.9,29.1,00.0,38.8,31.8,11.2,0000.0,0019.58,0003.37,0001.10
2021-11-29 20:43:00,,0826.9,5.01,0.00,29.9,29.2,00.0,38.8,31.8,11.1,0000.0,0020.31,0003.38,0001.08
2021-11-29 20:44:00,,0826.9,5.00,0.00,30.0,29.3,00.0,38.8,31.9,11.1,0000.0,0019.92,0003.39,0001.05
2021-11-29 20:45:00,,0827.1,4.99,0.00,30.0,29.3,00.0,38.9,31.9,11.0,0000.0,0020.26,0003.42,0001.04
2021-11-29 20:46:00,,0827.0,5.01,0.00,30.1,29.4,00.0,38.9,32.0,11.0,0000.0,0019.89,0003.39,0001.02
2021-11-29 20:47:00,,0826.9,5.02,0.00,30.1,28.9,00.0,38.9,31.9,11.0,0000.0,0020.46,0003.37,0001.00
2021-11-29 20:48:00,,0826.9,4.98,0.00,30.0,26.6,00.0,38.9,31.2,11.1,0000.0,0020.76,0003.33,0000.99
2021-11-29 20:49:00,,0826.8,4.99,0.00,29.8,25.6,00.0,38.8,31.0,11.1,0000.0,0020.63,0003.26,0000.96
2021-11-29 20:50:00,,0826.8,5.01,0.00,29.7,26.0,00.0,38.8,31.0,11.2,0000.0,0019.10,0003.19,0000.94
2021-11-29 20:51:00,,0826.9,4.99,0.00,29.6,26.5,00.0,38.8,31.1,11.3,0000.0,0018.44,0003.14,0000.93
2021-11-29 20:52:00,,0826.8,5.00,0.00,29.6,27.0,00.0,38.7,31.2,11.3,0000.0,0018.77,0003.19,0000.92
2021-11-29 20:53:00,,0826.9,5.02,0.00,29.6,27.4,00.0,38.7,31.3,11.3,0000.0,0016.76,0003.16,0000.92
2021-11-29 20:54:00,,0826.9,5.00,0.00,29.6,27.8,00.0,38.7,31.3,11.3,0000.0,0017.18,0003.15,0000.95
2021-11-29 20:55:00,,0826.8,5.00,0.00,29.7,28.1,00.0,38.7,31.4,11.3,0000.0,0018.27,0003.15,0000.99
2021-11-29 20:56:00,,0826.8,5.00,0.00,29.7,28.4,00.0,38.7,31.5,11.2,0000.0,0018.02,0003.16,0001.01
2021-11-29 20:57:00,,0826.8,5.01,0.00,29.7,28.6,00.0,38.7,31.6,11.2,0000.0,0017.95,0003.18,0001.03
2021-11-29 20:58:00,,0826.8,5.00,0.00,29.8,28.8,00.0,38.7,31.6,11.1,0000.0,0017.24,0003.21,0001.05
2021-11-29 20:59:00,,0826.8,5.01,0.00,29.8,28.9,00.0,38.7,31.7,11.1,0000.0,0017.44,0003.23,0001.05
